This is the latest recevied weather packets stored in our database for station/object KJ5SC. If no packets are shown the sender has not sent any weather packets the latest 10 day(s).
| Time | Temp. | Humidity | Pressure | Rain* | Wind** | Luminosity | Snow |
|---|---|---|---|---|---|---|---|
| 1787590779 | 34.44° C | 58% | 1019.8 hPa | 0 mm | - | 707 W/m² | - |
| 1787590474 | 33.89° C | 57% | 1019.8 hPa | 0 mm | - | 701 W/m² | - |
| 1787590169 | 33.33° C | 59% | 1019.8 hPa | 0 mm | - | 694 W/m² | - |
| 1787589865 | 33.33° C | 62% | 1019.8 hPa | 0 mm | - | 683 W/m² | - |
| 1787589561 | 33.33° C | 62% | 1020.1 hPa | 0 mm | - | 672 W/m² | - |
| 1787589261 | 33.33° C | 62% | 1020.1 hPa | 0 mm | - | 661 W/m² | - |
| 1787588956 | 33.33° C | 61% | 1020.1 hPa | 0 mm | - | 651 W/m² | - |
| 1787588652 | 32.78° C | 62% | 1019.9 hPa | 0 mm | - | 645 W/m² | - |
| 1787588347 | 33.33° C | 62% | 1019.8 hPa | 0 mm | - | 634 W/m² | - |
| 1787588043 | 33.33° C | 62% | 1019.8 hPa | 0 mm | - | 622 W/m² | - |
| 1787587738 | 32.78° C | 62% | 1019.7 hPa | 0 mm | - | 609 W/m² | - |
| 1787587439 | 32.78° C | 65% | 1019.7 hPa | 0 mm | - | 597 W/m² | - |
| 1787587138 | 32.78° C | 63% | 1019.5 hPa | 0 mm | - | 585 W/m² | - |
| 1787586832 | 32.78° C | 64% | 1019.5 hPa | 0 mm | - | 573 W/m² | - |
| 1787586528 | 32.22° C | 65% | 1019.5 hPa | 0 mm | - | 560 W/m² | - |
| 1787586223 | 32.22° C | 67% | 1019.5 hPa | 0 mm | - | 546 W/m² | - |
| 1787585920 | 31.67° C | 68% | 1019.4 hPa | 0 mm | - | 535 W/m² | - |
| 1787585619 | 31.67° C | 69% | 1019.4 hPa | 0 mm | - | 522 W/m² | - |
| 1787585315 | 31.11° C | 69% | 1019.4 hPa | 0 mm | - | 503 W/m² | - |
| 1787585014 | 31.11° C | 70% | 1019.4 hPa | 0 mm | - | 493 W/m² | - |
| 1787584710 | 30.56° C | 70% | 1019.6 hPa | 0 mm | - | 485 W/m² | - |
| 1787584408 | 30.56° C | 72% | 1019.4 hPa | 0 mm | - | 495 W/m² | - |
| 1787584108 | 30° C | 74% | 1019.2 hPa | 0 mm | - | 500 W/m² | - |
| 1787583808 | 30° C | 74% | 1019.2 hPa | 0 mm | - | 489 W/m² | - |
| 1787583503 | 30° C | 75% | 1019 hPa | 0 mm | - | 192 W/m² | - |
* Rain latest hour (hover to see other rain measurements)
** Current wind speed in m/s (hover to see current wind gust speed)